Change the Weather History Date:

Monday, August 11, 2014

  Actual Average Record
Temperature  
Mean Temperature 80 °F 71 °F  
Max Temperature 98 °F 85 °F 101 °F (1971)
Min Temperature 62 °F 57 °F 40 °F (1985)
Degree Days  
Heating Degree Days 0 1  
Month to date heating degree days 0 6  
Since 1 June heating degree days 113 174  
Since 1 July heating degree days 7 38  
Cooling Degree Days 15 6  
Month to date cooling degree days 136 76  
Year to date cooling degree days 504 319  
Since 1 June cooling degree days 498 305  
Growing Degree Days 30 (Base 50)    
Moisture  
Dew Point 39 °F    
Average Humidity 31    
Maximum Humidity 52    
Minimum Humidity 10    
Precipitation  
Precipitation 0.00 in 0.02 in 0.24 in (1922)
Month to date precipitation 0.00 0.19  
Year to date precipitation 9.42 9.71  
Snow  
Snow 0.00 in 0.00 in - ()
Month to date snowfall 0.0 0.0  
Since 1 June snowfall 0.0 0.0  
Since 1 July snowfall 0.0 0.0  
Snow Depth 0.00 in    
Sea Level Pressure  
Sea Level Pressure 29.96 in    
Wind  
Wind Speed 5 mph (NE)    
Max Wind Speed 12 mph    
Max Gust Speed 15 mph    
Visibility 10 miles    
Events      
T = Trace of Precipitation, MM = Missing Value Source: NWS Daily Summary

Daily Weather History Graph

Daily Weather History Graph

Search for Another Location

Airport or City:

Trip Planner

Search our weather history database for the weather conditions in past years. The results will help you decide how hot, cold, wet, or windy it might be!

Date:

Astronomy

Aug. 11, 2014 Rise Set
Actual Time 5:40 AM PDT 8:08 PM PDT
Civil Twilight 5:06 AM PDT 8:43 PM PDT
Nautical Twilight 4:22 AM PDT 9:26 PM PDT
Astronomical Twilight 3:32 AM PDT 10:15 PM PDT
Moon 8:28 PM PDT (8/11) 7:00 AM PDT (8/11)
Length of Visible Light 15h 37m
Length of Day
14h 28m
Full, 98% of the Moon is Illuminated
Aug 11
Full
Aug 17
Last Quarter
Aug 25
New
Sep 2
First Quarter
Sep 8
Full

Hourly Weather History & Observations

Time (PDT) Temp. Dew Point Humidity Pressure Visibility Wind Dir Wind Speed Gust Speed Precip Events Conditions
12:53 AM 68.0 °F 37.9 °F 33% 30.02 in 10.0 mi Calm Calm - N/A   Mostly Cloudy
1:53 AM 64.0 °F 37.9 °F 38% 30.03 in 10.0 mi Calm Calm - N/A   Mostly Cloudy
2:53 AM 63.0 °F 37.9 °F 40% 30.02 in 10.0 mi Calm Calm - N/A   Mostly Cloudy
3:53 AM 64.9 °F 39.9 °F 40% 30.01 in 10.0 mi NE 3.5 mph - N/A   Mostly Cloudy
4:53 AM 66.0 °F 44.1 °F 45% 30.01 in 10.0 mi ENE 4.6 mph - N/A   Partly Cloudy
5:53 AM 63.0 °F 44.1 °F 50% 30.02 in 9.0 mi NE 5.8 mph - N/A   Partly Cloudy
6:53 AM 66.9 °F 45.0 °F 45% 30.03 in 10.0 mi NNE 6.9 mph - N/A   Partly Cloudy
7:53 AM 68.0 °F 46.0 °F 45% 30.04 in 10.0 mi NE 9.2 mph - N/A   Partly Cloudy
8:53 AM 72.0 °F 46.9 °F 41% 30.04 in 9.0 mi ENE 9.2 mph - N/A   Clear
9:53 AM 75.9 °F 46.0 °F 35% 30.04 in 9.0 mi ENE 3.5 mph - N/A   Partly Cloudy
10:53 AM 81.0 °F 45.0 °F 28% 30.02 in 10.0 mi NE 8.1 mph - N/A   Clear
11:53 AM 84.9 °F 45.0 °F 25% 30.00 in 10.0 mi NE 8.1 mph - N/A   Clear
1:53 PM 93.2 °F 35.6 °F 13% 29.96 in 10.0 mi NNE 5.8 mph - N/A   Partly Cloudy
2:53 PM 96.1 °F 34.0 °F 11% 29.94 in 10.0 mi Variable 4.6 mph - N/A   Partly Cloudy
3:53 PM 96.1 °F 33.1 °F 11% 29.92 in 10.0 mi Variable 4.6 mph - N/A   Mostly Cloudy
4:53 PM 98.1 °F 34.0 °F 11% 29.90 in 10.0 mi North 3.5 mph - N/A   Mostly Cloudy
5:53 PM 96.1 °F 34.0 °F 11% 29.89 in 10.0 mi NE 4.6 mph - N/A   Mostly Cloudy
6:53 PM 93.9 °F 32.0 °F 11% 29.88 in 10.0 mi NNE 5.8 mph - N/A   Mostly Cloudy
7:53 PM 90.0 °F 30.9 °F 12% 29.88 in 10.0 mi North 3.5 mph - N/A   Mostly Cloudy
8:53 PM 87.1 °F 33.1 °F 15% 29.88 in 10.0 mi NNE 3.5 mph - N/A   Mostly Cloudy
9:53 PM 81.0 °F 34.0 °F 18% 29.88 in 10.0 mi Calm Calm - N/A   Scattered Clouds
10:53 PM 82.0 °F 32.0 °F 16% 29.87 in 10.0 mi Calm Calm - N/A   Mostly Cloudy
11:53 PM 80.1 °F 42.1 °F 26% 29.88 in 10.0 mi NE 3.5 mph - N/A   Mostly Cloudy